#timestamp,LO_Frequency,Hit,StdDev 
1455404415.6,286046992.1,N
1455404435.5,286046992.9,N
1455404455.3,286046991.1,N
1455404475.1,286046986.9,Y
1455404495.9,286046998.0,P
1455404515.7,286046997.9,N
1455404535.5,286046993.3,N
1455404555.3,286046994.4,N
1455404575.2,286046992.5,N
1455404595.0,286046994.4,N
1455404595.9,286046994.4,N
1455404615.7,286046995.9,N
1455404635.6,286046996.1,N
1455404655.4,286046994.9,N
1455404675.2,286046990.1,Y
1455404695.1,286046997.1,P
1455404696.0,286046997.1,N
1455404715.8,286046998.0,N
1455404735.6,286046997.6,N
1455404755.5,286046995.0,Y
1455404775.3,286047000.8,P
1455404795.1,286046997.9,N
1455404815.9,286046995.4,N
1455404835.7,286046993.7,Y
1455404855.5,286046994.6,P
1455404875.4,286046995.4,N
1455404895.2,286046995.4,P
1455404915.0,286046994.5,Y
1455404915.9,286046994.5,P
1455404935.8,286046997.8,P
1455404955.6,286046994.6,P
1455404975.4,286046994.0,Y
1455404995.3,286046996.5,P
1455405015.1,286046996.5,P
1455405035.8,286046995.6,P
1455405055.7,286046996.2,Y
1455405075.5,286047000.7,P
1455405095.3,286047000.4,N
1455405115.2,286046998.2,N
1455405135.0,286047000.1,N
1455405135.9,286047000.1,N
1455405155.7,286047000.0,N
1455405175.6,286046998.8,N
1455405195.4,286046997.2,N
1455405215.2,286046999.3,N
1455405235.1,286046997.1,N
1455405236.0,286046997.1,N
1455405255.8,286046997.3,N
1455405275.6,286046997.6,N
1455405295.5,286046994.5,Y
1455405315.3,286046994.7,P
1455405335.1,286046996.1,N
1455405355.9,286046998.0,N
1455405375.7,286046997.7,N
1455405395.5,286046997.6,N
1455405415.4,286047000.7,N
1455405435.2,286047000.5,N
1455405455.0,286047000.4,N
1455405455.9,286047000.4,N
1455405475.7,286046998.6,N
1455405495.6,286047002.2,N
1455405515.4,286047002.7,N
1455405535.2,286047001.9,N
1455405555.1,286046999.7,N
1455405556.0,286046999.7,N
1455405575.8,286046998.8,N
1455405595.6,286047001.0,N
1455405615.5,286047000.1,N
1455405635.3,286047003.0,N
1455405655.1,286047005.0,N
1455405675.9,286047004.0,N
1455405695.7,286047002.2,N
1455405715.5,286047004.4,N
1455405735.4,286047001.9,N
1455405755.2,286047000.2,N
1455405775.0,286047003.2,N
1455405775.9,286047003.2,N
1455405795.8,286047002.9,N
1455405815.6,286047007.6,Y
1455405835.4,286047006.1,P
1455405855.3,286047006.5,N
1455405875.1,286047012.3,P
1455405876.0,286047012.3,N
1455405895.8,286047013.4,Y
1455405915.7,286047006.6,P
1455405935.5,286047010.2,P
1455405955.3,286047006.3,P
1455405975.2,286047008.4,Y
1455405995.9,286047000.1,P
1455406015.7,286047003.5,N
1455406035.6,286047005.3,N
1455406055.4,286047007.1,N
1455406075.2,286047005.1,N
1455406095.0,286047005.9,N
1455406095.9,286047005.9,N
1455406115.8,286047005.4,N
1455406135.6,286047005.9,N
1455406155.5,286047008.9,Y
1455406175.3,286047003.8,P
1455406195.1,286047003.8,P
1455406215.8,286047005.1,P
1455406235.7,286047003.4,Y
1455406255.5,286046998.4,P
1455406275.3,286046999.9,N
1455406295.2,286047002.2,N
1455406315.0,286046999.7,N
1455406315.9,286046999.7,N
1455406335.7,286046999.8,N
1455406355.6,286047001.4,N
1455406375.4,286047007.3,Y
1455406395.2,286047006.3,P
1455406415.1,286047001.9,N
1455406416.0,286047001.9,N
1455406435.8,286046999.3,N
1455406455.6,286046998.0,N
1455406475.5,286046992.1,Y
1455406495.3,286046994.7,P
1455406515.1,286046994.2,N
1455406535.9,286046994.7,N
1455406555.7,286046989.2,Y
1455406575.5,286046993.0,P
1455406595.4,286046991.2,P
1455406615.2,286046991.6,P
1455406635.0,286046988.2,Y
1455406636.0,286046988.2,P
1455406655.8,286046994.2,N
1455406675.6,286046995.9,N
1455406695.4,286046991.7,N
1455406715.3,286046994.3,N
1455406735.1,286046994.5,N
1455406755.8,286046990.1,Y
1455406775.7,286046995.8,P
1455406795.5,286046995.7,P
1455406815.3,286046992.0,P
1455406835.2,286046992.6,Y
1455406855.0,286046997.4,P
1455406855.9,286046997.4,N
1455406875.7,286046997.3,N
1455406895.6,286046998.0,N
1455406915.4,286046996.0,N
1455406935.2,286046992.2,Y
1455406955.1,286046995.2,P
1455406956.0,286046995.2,P
1455406975.8,286046998.7,N
1455406995.6,286046997.2,N
1455407015.5,286046997.8,N
1455407035.3,286046997.2,N
1455407055.1,286046995.0,Y
1455407075.9,286047002.8,P
1455407095.7,286047000.6,N
1455407115.5,286047001.2,N
1455407135.4,286047002.8,N
1455407155.2,286047004.0,N
1455407175.0,286047003.7,N
1455407175.9,286047003.7,N
1455407195.8,286047000.9,N
1455407215.6,286047000.5,N
1455407235.4,286047003.9,N
1455407255.3,286047004.2,N
1455407275.1,286046999.7,N
1455407276.0,286046999.7,N
1455407295.8,286047000.6,N
1455407315.7,286047000.6,N
1455407335.5,286047004.3,N
1455407355.3,286046999.4,N
1455407375.1,286046996.8,N
1455407395.9,286046998.3,N
1455407415.7,286046997.2,N
1455407435.5,286046996.9,N
1455407455.4,286047002.1,N
1455407475.2,286047000.5,N
1455407495.0,286046996.6,N
1455407495.9,286046996.6,N
1455407515.8,286046995.8,N
1455407535.6,286046993.4,N
1455407555.4,286046995.0,N
1455407575.3,286046991.8,N
1455407595.1,286046993.9,N
1455407596.0,286046993.9,N
1455407615.8,286046993.7,N
1455407635.7,286046992.3,N
1455407655.5,286046991.2,N
1455407675.3,286046989.8,N
1455407695.1,286046991.3,N
1455407715.9,286046990.7,N
1455407735.7,286046987.3,Y
1455407755.6,286046988.6,P
1455407775.4,286046989.6,N
1455407795.2,286046988.8,N
1455407815.0,286046990.2,N
1455407816.0,286046990.2,Y
1455407835.8,286047002.8,P
1455407855.6,286047001.4,N
1455407875.4,286047004.4,N
1455407895.3,286047003.6,N
1455407915.1,286047005.2,N
1455407935.8,286047004.6,N
1455407955.7,286047005.7,N
1455407975.5,286047007.6,N
1455407995.3,286047007.6,N
1455404415.2,286047001.6,N
1455404435.1,286047005.8,Y
1455404436.0,286047005.8,P
1455404455.8,286047002.3,N
1455404475.6,286047001.4,N
1455404495.5,286047002.0,N
1455404515.3,286047000.0,N
1455404535.1,286047001.9,N
1455404555.9,286047004.4,N
1455404575.7,286047001.7,N
1455404595.5,286047003.0,N
1455404615.4,286047001.3,N
1455404635.2,286047005.9,Y
1455404655.0,286047002.7,P
1455404655.9,286047002.7,P
1455404675.8,286046999.4,P
1455404695.6,286046998.8,N
1455404715.4,286046997.3,N
1455404735.3,286046999.3,N
1455404755.1,286046997.9,N
1455404756.0,286046997.9,N
1455404775.8,286046999.5,N
1455404795.7,286046999.1,N
1455404815.5,286046998.7,N
1455404835.3,286046997.8,N
1455404855.1,286046999.1,N
1455404875.9,286046997.2,N
1455404895.7,286046997.3,N
1455404915.5,286046997.5,N
1455404935.4,286046997.6,N
1455404955.2,286046995.7,N
1455404975.0,286046999.3,N
1455404975.9,286046999.3,N
1455404995.8,286047000.6,N
1455405015.6,286046999.0,N
1455405035.4,286046996.2,N
1455405055.3,286046996.9,N
1455405075.1,286046998.2,N
1455405076.0,286046998.2,N
1455405095.8,286046999.9,N
1455405115.7,286047002.0,N
1455405135.5,286047000.3,N
1455405155.3,286047000.9,N
1455405175.2,286047001.0,N
1455405195.9,286046998.4,N
1455405215.7,286047004.0,N
1455405235.5,286047002.6,N
1455405255.4,286047005.2,N
1455405275.2,286047007.6,Y
1455405295.1,286047010.0,P
1455405296.0,286047010.0,N
1455405315.8,286047011.6,N
1455405335.6,286047015.5,Y
1455405355.5,286047007.3,P
1455405375.3,286047006.8,P
1455405395.1,286047013.6,P
1455405415.9,286047011.8,Y
1455405435.7,286047000.2,P
1455405455.5,286047002.3,N
1455405475.4,286047002.6,N
1455405495.2,286047005.3,N
1455405515.0,286047007.6,N
1455405515.9,286047007.6,N
1455405535.8,286047004.0,N
1455405555.6,286047004.6,N
1455405575.4,286047004.8,N
1455405595.2,286047004.9,N
1455405615.1,286047002.9,N
1455405616.0,286047002.9,N
1455405635.8,286047007.3,Y
1455405655.6,286047003.7,P
1455405675.5,286047002.5,P
1455405695.3,286047002.6,P
1455405715.1,286047001.7,N
1455405735.9,286047004.0,Y
1455405755.7,286047001.9,P
1455405775.5,286047002.5,P
1455405795.4,286047003.9,P
1455405815.2,286047007.5,Y
1455405835.0,286047000.9,P
1455405835.9,286047000.9,N
1455405855.8,286047001.5,N
1455405875.6,286047005.9,Y
1455405895.4,286047003.6,P
1455405915.3,286047005.8,P
1455405935.1,286047007.6,P
1455405955.9,286047007.3,Y
1455405975.7,286047000.4,P
1455405995.5,286047005.9,N
1455406015.3,286047003.5,N
1455406035.2,286047004.2,N
1455406055.9,286047003.9,N
1455406075.7,286047005.8,Y
1455406095.6,286046995.6,P
1455406115.4,286046996.2,N
1455406135.2,286046998.0,N
1455406155.1,286046996.4,N
1455406156.0,286046996.4,N
1455406175.8,286046996.2,N
1455406195.6,286046996.4,N
1455406215.5,286046997.6,N
1455406235.3,286046994.3,N
1455406255.1,286046994.0,N
1455406275.9,286046992.0,Y
1455406295.7,286046998.9,P
1455406315.5,286046998.5,N
1455406335.4,286047001.2,N
1455406355.2,286046996.6,N
1455406375.0,286046994.0,Y
1455406375.9,286046994.0,P
1455406395.8,286046996.9,N
1455406415.6,286046999.5,N
1455406435.4,286046995.6,N
1455406455.3,286046997.6,N
1455406475.1,286046996.0,N
1455406476.0,286046996.0,N
1455406495.8,286046993.8,Y
1455406515.7,286047001.0,P
1455406535.5,286046996.5,N
1455406555.3,286046999.3,N
1455406575.2,286046997.2,N
1455406595.9,286046996.1,N
1455406615.7,286046995.4,N
1455406635.5,286046996.8,N
1455406655.4,286046995.2,N
1455406675.2,286046991.8,Y
1455406695.0,286046995.4,P
1455406696.0,286046995.4,P
1455406715.8,286046996.0,P
1455406735.6,286046997.5,Y
1455406755.5,286047000.1,P
1455406775.3,286046998.1,N
1455406795.1,286046996.9,N
1455406815.8,286046998.9,N
1455406835.7,286046995.8,N
1455406855.5,286046995.8,N
1455406875.3,286046998.7,N
1455406895.2,286046999.4,N
1455406915.9,286046999.0,N
1455406935.7,286046998.0,N
1455406955.6,286047000.0,N
1455406975.4,286047000.7,N
1455406995.2,286047000.8,N
1455407015.1,286046999.0,N
1455407016.0,286046999.0,N
1455407035.8,286046995.3,N
1455407055.6,286046993.6,Y
1455407075.5,286046995.8,P
1455407095.3,286046996.0,P
1455407115.1,286046994.5,P
1455407135.9,286046994.5,Y
1455407155.7,286046999.9,P
1455407175.5,286046997.8,N
1455407195.4,286046995.3,P
1455407215.2,286046996.4,N
1455407235.0,286046995.2,Y
1455407235.9,286046995.2,P
1455407255.8,286046997.1,P
1455407275.6,286046995.8,P
1455407295.4,286046992.3,Y
1455407315.3,286046995.5,P
1455407335.1,286046995.2,P
1455407336.0,286046995.2,P
1455407355.8,286046997.1,Y
1455407375.7,286046999.3,P
1455407395.5,286046997.8,N
1455407415.3,286046999.5,N
1455407435.2,286046998.6,N
1455407455.9,286046997.0,N
1455407475.7,286046995.1,Y
1455407495.6,286046998.6,P
1455407515.4,286046998.9,P
1455407535.2,286047000.5,N
1455407555.1,286046997.6,N
1455407556.0,286046997.6,N
1455407575.8,286046995.4,Y
1455407595.6,286046997.0,P
1455407615.5,286046995.4,P
1455407635.3,286046993.8,P
1455407655.1,286046992.9,Y
1455407675.9,286046995.1,P
1455407695.7,286046997.9,P
1455407715.5,286046997.8,N
1455407735.4,286046996.5,Y
1455407755.2,286047002.1,P
1455407775.0,286047005.3,N
1455407775.9,286047005.3,N
1455407795.8,286047006.3,N
1455407815.6,286047003.7,N
1455407835.4,286047003.9,N
1455407855.3,286047004.9,N
1455407875.1,286047005.4,N
1455407876.0,286047005.4,N
1455407895.8,286047005.8,N
1455407915.7,286047007.0,N
1455407935.5,286047006.6,N
1455407955.3,286047008.6,Y
1455407975.2,286047004.8,P
1455407995.9,286047005.4,P
